Regional Weather Roundup
Issued by NWS Upton, NY

Current Version | Previous Version | Text Only | Print | Product List | Glossary On
Versions: 1 2 3 4 5 6 7 8 9 10 11 12 13 14 15 16 17 18 19 20 21 22 23 24 25 26 27 28 29 30 31 32 33 34 35 36 37 38 39 40 41 42 43 44 45 46 47 48 49 50
000 ASUS41 KOKX 281309 RWROKX REGIONAL WEATHER ROUNDUP NATIONAL WEATHER SERVICE NEW YORK NY 900 AM EDT SUN MAY 28 2017 NOTE: "FAIR" INDICATES FEW OR NO CLOUDS BELOW 12,000 FEET WITH NO SIGNIFICANT WEATHER AND/OR OBSTRUCTIONS TO VISIBILITY. NYZ071-072-176-178-NJZ106-104-281400- NEW YORK CITY METRO AREA CITY SKY/WX TMP DP RH WIND PRES REMARKS Central Park CLOUDY 63 58 83 VRB6 29.97S Wall St Helipt CLOUDY 63 58 83 NE3 29.96S Bronx Bot Gard N/A 59 55 88 NE2 29.97R LaGuardia APRT CLOUDY 62 58 86 SE5 29.94S FOG Kennedy INTL PTSUNNY 65 58 78 S7 29.96R Breezy Point N/A 59 N/A N/A SE6 N/A Newark/Liberty CLOUDY 60 58 92 VRB3 29.94S FOG Teterboro CLOUDY 62 58 86 E7 29.93S FOG $$ NYZ177-179-078>081-281400- LONG ISLAND NEW YORK CITY SKY/WX TMP DP RH WIND PRES REMARKS Jones Beach N/A 61 N/A N/A S5 N/A Matinecock PT NOT AVBL Farmingdale SUNNY 64 57 78 S9 29.96R MacArthur/ISP MOSUNNY 64 57 78 S8 29.96R Shirley SUNNY 63 58 83 SE7 29.97R Mt Sinai Harb N/A N/A N/A N/A S5 N/A Westhampton SUNNY 62 54 74 S7 29.99R East Hampton PTSUNNY 58 50 75 SE8 29.98R Montauk N/A 59 53 80 VRB5 30.00R $$ NYZ052-065-067-281400- HUDSON VALLEY CITY SKY/WX TMP DP RH WIND PRES REMARKS White Plains N/A 60 57 89 SE8 29.95S FOG Larchmont Harb N/A 57 N/A N/A N6 N/A Croton O-T Hud N/A 61 N/A N/A SW3 N/A Newburgh PTSUNNY 63 59 88 SE7 29.95S Montgomery CLOUDY 65 59 81 E3 29.92F Poughkeepsie CLOUDY 64 57 78 VRB3 29.92F Albany PTSUNNY 67 56 67 CALM 29.93S $$ NJZ001-105-106-008-010-013-015-019>022-104-281400- NEW JERSEY CITY SKY/WX TMP DP RH WIND PRES REMARKS Newark/Liberty CLOUDY 60 58 92 VRB3 29.94S FOG Teterboro CLOUDY 62 58 86 E7 29.93S FOG Caldwell MOSUNNY 68 58 70 NE7 29.94S Somerville SUNNY 65 60 84 CALM 29.91F Linden CLOUDY 60 58 92 CALM 29.95R FOG Perth Amboy N/A 57 N/A N/A E8 N/A Sussex SUNNY 68 60 75 CALM 29.93F Andover N/A 67 57 70 VRB5 29.92F Trenton MOSUNNY 64 61 90 E6 29.91F Millville CLOUDY 66 61 84 E8 29.91S Atlantic City CLOUDY 66 55 67 E8 29.93S Wrightstown SUNNY 68 61 77 E8 29.90F Toms River PTSUNNY 68 60 75 E7 29.94F Belmar MOSUNNY 66 59 78 E8 29.95S $$ PAZ047>061-062-071-281400- EASTERN PENNSYLVANIA CITY SKY/WX TMP DP RH WIND PRES REMARKS Philadelphia MOSUNNY 69 61 75 E6 29.91F Allentown SUNNY 68 57 68 E5 29.91F Scranton SUNNY 69 58 67 CALM 29.91S $$ CTZ002-004>006-009-010-012-RIZ004-006-007-MAZ004-011-015-281400- SOUTHERN NEW ENGLAND IN CT CITY SKY/WX TMP DP RH WIND PRES REMARKS Bradley INTL CLOUDY 62 56 80 CALM 29.96S Hartford CLOUDY 62 56 80 S6 29.96R Danbury CLOUDY 60 58 92 SE6 29.96F Wtrbury/Oxford PTSUNNY 63 54 72 S7 29.96S Bridgeport CLOUDY 62 56 80 E7 29.96S Meriden CLOUDY 61 55 81 S5 29.96S New Haven CLOUDY 61 55 81 SE7 29.97R Chester N/A 63 55 77 CALM 29.97S Groton CLOUDY 59 52 77 SE6 29.98R Wilimantic CLOUDY 61 55 81 S6 29.98R IN RI CITY SKY/WX TMP DP RH WIND PRES REMARKS Providence CLOUDY 59 53 80 SE5 29.98S Block Island CLOUDY 58 52 80 S9 29.99R Westerly CLOUDY 59 51 75 S7 29.99R IN MA CITY SKY/WX TMP DP RH WIND PRES REMARKS Boston PTSUNNY 62 56 80 S6 29.97F Worcester CLOUDY 58 53 84 SE3 29.97S Westfield CLOUDY 61 57 87 CALM 29.95S Provincetown SUNNY 61 51 70 S9 30.00S Nantucket CLOUDY 57 47 69 S6 30.00R $$ ANZ330-335-338-340-345-350-353-355-281400- COASTAL MARINE OBSERVATIONS STATION/POSITION TIME SKY/WX TEMP WIND PRES VSBY WAVE AIR SEA DIR/SP/G HT/PER (UTC) (F) (DEG/KT/KT) (MB) (MI) (FT/S) NY HARB ENTRANCE 1150 59 58 140/ 6/ 8 1013.7 2/ 8 20 S FIRE ISLAND 1250 57 57 150/ 8/ 10 1013.7 2/ 8 GREAT SOUTH BAY NOT AVBL 23 SSW MONTAUK P 1150 56 55 1014.8 2/ 8 15 E BARNEGAT LI 1230 59 N/A 2/ 8 HUDSON CANYON 1150 57 54 110/ 6/ 6 1014.4 2/ 7 KINGS POINT 1242 59 60 340/ 3/ 4 1013.9 EXECUTION ROCKS 1245 60 N/A CENTRAL LI SOUND 1200 57 80/ 4/ 4 N/A 0 EASTERN LI SOUND NOT AVBL ROBBINS REEF 1242 59 130/ 5/ 5 1014.5 $$ >>>>>>>>>>>>>>>>>>>>>>>>>>>> KEY <<<<<<<<<<<<<<<<<<<<<<<<<<< > < > SKY/WX - Sky Condition/Present Weather < > TMP - Temperature in Fahrenheit < > DP - Dew Point in Fahrenheit < > RH - Relative Humidity in Percent < > WIND - Direction (from) and Speed in MPH < > PRES - Mean Sea Level Pressure (inches of Hg) < > WCI - Wind Chill Index < > VSB - VISIBILITY IN MILES < > HX - HEAT INDEX < > TC - TEMPERATURE IN CELSIUS < > VRB - VARIABLE WIND DIRECTION < > < >>>>>>>>>>>>>>>>>>>>>>>>>>>> KEY <<<<<<<<<<<<<<<<<<<<<<<<<<<

USA.gov is the U.S. government's official web portal to all federal, state and local government web resources and services.